Location: Unspecified
(40.8819°N, 0.0000°E)
Time: 19:10:11
(UTC+00:00)

NANOSAT C BR1 - Pass Details

Date: 25 April 2024
Orbit: 555 x 561 km, 98.1° (Epoch: 26 May)

Event Time Altitude Azimuth Distance (km) Brightness Sun altitude
Rises 03:54:14 0° 12° (NNE) 2,768 ? -13.1°
Reaches altitude 10° 03:56:23 10° 11° (NNE) 1,867 ? -12.8°
Maximum altitude 04:00:26 84° 285° (WNW) 574 ? -12.1°
Drops below altitude 10° 04:04:27 10° 196° (SSW) 1,853 ? -11.5°
Enters shadow 04:04:58 - 196° (SSW) 2,067 ? -11.4°
